Location: Litvinovka
(48.6667°N, 34.3500°E)
Time: 09:48:59
(UTC+00:00)

Cosmos 1844 Rocket - Pass Details

Date: 18 September 2020
Orbit: 823 x 846 km, 71.0° (Epoch: 30 October)

Event Time Altitude Azimuth Distance (km) Brightness Sun altitude
Rises 17:56:44 0° 201° (SSW) 3,345 5.7 -21.1°
Reaches altitude 10° 17:59:09 10° 200° (SSW) 2,418 5.0 -21.4°
Maximum altitude 18:04:41 77° 115° (ESE) 854 2.5 -22.2°
Drops below altitude 10° 18:10:16 10° 31° (NNE) 2,444 5.1 -23.0°
Sets 18:12:43 0° 30° (NNE) 3,385 5.9 -23.4°
